OpenBCM V2.0.2 (Linux)

Packet Radio Mailbox

IZ3LSV

[San Dona' di P. JN]

 Login: GUEST





  
LU9DCE > KEPS     30.03.18 18:05l 259 Lines 12851 Bytes #999 (0) @ WW
BID : 35523_LU9DCE
Read: GUEST
Subj: SAT TLE OF 30
Path: IZ3LSV<DB0ERF<DB0RES<DB0EEO<DB0GOS<ON0AR<VK6HGR<LU4ECL<LU9DCE
Sent: 180330/1601Z @:LU9DCE.TOR.BA.ARG.SOAM #:35523 [TORTUGUITAS] FBB7.07
From: LU9DCE@LU9DCE.TOR.BA.ARG.SOAM
To  : KEPS@WW


            __    _  _  ___  ____   ___  ____    ____  ____  ____
           (  )  / )( \/ _ \(    \ / __)(  __)  (  _ \(  _ \/ ___)
           / (_/\) \/ (\__  )) D (( (__  ) _)    ) _ ( ) _ (\___ \
           \____/\____/(___/(____/ \___)(____)  (____/(____/(____/
               ESTACION DE PACKET RADIO - BUENOS AIRES (GF05OM)
                   BOLETINES INFORMATIVOS PROGRAMADOS (BIP)
                    LU9DCE@GMX.COM - RF 147070 @ 1200 BAUD
                           telnet lu9dce.dynu.com
             BBS port 6300 / NODE port 3694 / DXCLUSTER port 9000

+------------------------------------------------------------------------------+
OSCAR 7
1 07530U 74089B   18088.84364528 -.00000037  00000-0  44174-4 0  9993
2 07530 101.6782  57.3824 0012352 127.5484 262.0898 12.53631917984650
OSCAR 11 (UoSAT 2)
1 14781U 84021B   18089.05776979  .00000079  00000-0  15895-4 0  9990
2 14781  97.6592 128.6070 0008130 353.1792   6.9310 14.82990942832715
OSCAR 19 (LUSAT)
1 20442U 90005G   18088.88709018  .00000006  00000-0  18499-4 0  9993
2 20442  98.6041  27.8938 0012361  29.2911 330.8964 14.32890702472536
KITSAT B
1 22825U 93061C   18088.87665475  .00000003  00000-0  19204-4 0  9994
2 22825  98.8548  63.5893 0007754 212.0428 148.0283 14.30025556278238
POSAT 1
1 22826U 93061D   18089.19163890 -.00000008  00000-0  14516-4 0  9992
2 22826  98.8490  63.9572 0008458 200.4332 159.6512 14.30356616278462
RADIO ROSTO
1 23439U 94085A   18088.53121951 -.00000047 +00000-0 -11519-3 0  9992
2 23439 064.8137 117.6607 0159936 196.4721 324.7679 11.27566651957585
JAS 2
1 24278U 96046B   18089.18219108 -.00000029  00000-0  88045-5 0  9996
2 24278  98.5248 298.7912 0349680 316.0412  41.3393 13.53082624 67556
TECHSAT 1B
1 25397U 98043D   18088.75337968 -.00000021 +00000-0 +99013-5 0  9994
2 25397 098.6432 030.5360 0000379 191.1119 169.0051 14.23642344024202
ISS (ZARYA)
1 25544U 98067A   18089.39308924  .00005622  00000-0  91936-4 0  9991
2 25544  51.6413  51.5192 0001543 276.9703 227.5388 15.54173341106266
PCSAT
1 26931U 01043C   18088.92997812 -.00000027 +00000-0 +21477-4 0  9996
2 26931 067.0506 073.9158 0006768 282.9410 077.0935 14.30498789861147
SAUDISAT 1C
1 27607U 02058C   18089.11324931  .00000035  00000-0  25673-4 0  9992
2 27607  64.5561 331.7341 0056066 346.7479  13.2146 14.75433940821295
CUTE-1
1 27844U 03031E   18089.01685966  .00000070  00000-0  51185-4 0  9990
2 27844  98.6891  98.8334 0008796 236.8390 123.1944 14.22102605764941
CUBESAT XI 4
1 27848U 03031J   18089.02456250  .00000048  00000-0  41712-4 0  9997
2 27848  98.6979  99.2120 0008601 248.1932 111.8331 14.21707927764810
MOZHAYETS 4
1 27939U 03042A   18089.51833633  .00000082  00000-0  23132-4 0  9992
2 27939  97.9769 230.7429 0013790  43.0896  31.2581 14.66670026775283
CUBESAT XI 5
1 28895U 05043F   18088.90043452 +.00000144 +00000-0 +36489-4 0  9999
2 28895 097.8969 243.6189 0015849 323.8595 036.1536 14.63524149662048
CUTE-1.7+APD II
1 32785U 08021C   18089.17403305  .00000259  00000-0  33741-4 0  9993
2 32785  97.5513 105.1098 0011746 304.4917  55.5190 14.88085864537426
DELFI C3
1 32789U 08021G   18088.91089417 +.00001732 +00000-0 +12335-3 0  9994
2 32789 097.5209 145.7023 0012116 201.8046 158.2667 15.05860392539750
SEEDS
1 32791U 08021J   18088.85408581 +.00000391 +00000-0 +45422-4 0  9991
2 32791 097.5421 109.9792 0011824 284.3359 075.6547 14.90500906537619
YUBELEINY
1 32953U 08025A   18089.32558241 -.00000001  00000-0 -80563-4 0  9992
2 32953  82.5020  61.7166 0019852  25.1738 335.0305 12.43082464446972
PRISM (HITOMI)
1 33493U 09002B   18089.45290037  .00000421  00000-0  43000-4 0  9997
2 33493  98.1376 348.4939 0014212 213.3218 146.7111 14.96124998498575
KKS-1 (KISEKI)
1 33499U 09002H   18089.50493871  .00000134  00000-0  27828-4 0  9991
2 33499  98.3530 268.7268 0009277 175.4964 184.6329 14.75308659493577
SWISSCUBE
1 35932U 09051B   18089.41498152  .00000131  00000-0  40726-4 0  9995
2 35932  98.5328 238.7343 0008889  93.1203 267.1012 14.56136321451977
BEESAT
1 35933U 09051C   18089.10432503  .00000117  00000-0  37374-4 0  9999
2 35933  98.5368 239.9134 0007064 104.8093 255.3887 14.56242889452038
ITUPSAT 1
1 35935U 09051E   18088.97698682  .00000090  00000-0  31869-4 0  9990
2 35935  98.5480 240.0370 0009392 101.1710 259.0542 14.55422547451805
XIWANG-1 (HOPE-1)
1 36122U 09072B   18089.49932809 -.00000054  00000-0 -31704-4 0  9992
2 36122 100.0810 107.7994 0006842 296.7042  63.3371 13.16343975398299
TISAT 1
1 36799U 10035E   18088.84712136  .00000579  00000-0  64910-4 0  9995
2 36799  98.0931 223.0237 0013726 108.0294 252.2420 14.90736488418334
JUGNU
1 37839U 11058B   18088.46173703  .00000320  00000-0  29042-4 0  9997
2 37839  19.9603 160.6867 0019169  87.7846  21.6648 14.12614005334089
SRMSAT
1 37841U 11058D   18089.56782654  .00000317  00000-0  28958-4 0  9994
2 37841  19.9710 201.5620 0011909 347.8931 115.6475 14.10602299333768
M-CUBED/EXP-1 PRIME
1 37855U 11061F   18088.85918900  .00001777  00000-0  98704-4 0  9996
2 37855 101.7251 110.7984 0177034 317.0174  41.7319 15.04223231349725
HORYU 2
1 38340U 12025D   18089.54767415  .00000207  00000-0  38482-4 0  9991
2 38340  98.3720 108.5474 0012928 100.5872 259.6793 14.75520357315518
STRAND 1
1 39090U 13009E   18088.83217242 +.00000041 +00000-0 +29663-4 0  9993
2 39090 098.5299 296.2140 0009399 166.0366 194.1081 14.35017041266427
SOMP
1 39134U 13015E   18088.80368673  .00001381  00000-0  75061-4 0  9992
2 39134  64.8649  23.6576 0020981 219.9280 140.0305 15.18945095272842
BEESAT 3
1 39135U 13015F   18089.22398073  .00001111  00000-0  66440-4 0  9999
2 39135  64.8706  34.6380 0026278 246.3023 113.5345 15.16503828272678
BEESAT 2
1 39136U 13015G   18088.83629327  .00001136  00000-0  68659-4 0  9996
2 39136  64.8707  38.4599 0026809 245.5839 114.2488 15.15978328272564
CUBEBUG 1
1 39153U 13018D   18089.22700612  .00000211  00000-0  34642-4 0  9997
2 39153  97.9766 184.9489 0016626 197.4821 162.5821 14.80362214265901
ZACUBE
1 39417U 13066B   18089.05860399  .00000266  00000-0  39906-4 0  9991
2 39417  97.5957 121.8879 0060395  55.3581 305.3306 14.80899278235088
TRITON 1
1 39427U 13066M   18089.55571622  .00000170  00000-0  35014-4 0  9995
2 39427  97.6397  90.7041 0114868 150.6499 210.1225 14.67628375233045
GOMX 1
1 39430U 13066Q   18089.50707661  .00000156  00000-0  37592-4 0  9995
2 39430  97.6911  72.0818 0150640 218.5179 140.5197 14.59044936231681
HUMSAT D
1 39433U 13066T   18088.89342146 +.00000524 +00000-0 +57051-4 0  9993
2 39433 097.6133 148.0114 0030496 349.5146 010.5433 14.91789763235423
50 SAT
1 39436U 13066W   18089.30177075  .00141005  00000-0  12272-2 0  9994
2 39436  97.7122 219.5743 0001922 206.9704 153.1457 15.68592177240933
CUBEBUG 2
1 39440U 13066AA  18089.55150237  .00000232  00000-0  39098-4 0  9990
2 39440  97.6066 109.4400 0082134  90.9773 270.0849 14.75633755234327
FUNCUBE 1
1 39444U 13066AE  18088.89324613 +.00000326 +00000-0 +46583-4 0  9992
2 39444 097.5968 123.1559 0059430 051.6999 308.9538 14.81668081233328
UWE-3
1 39446U 13066AG  18088.76118177  .00000262  00000-0  41394-4 0  9990
2 39446  97.5999 114.7795 0071768  75.2351 285.6799 14.78167284233385
SPROUT
1 39770U 14029E   18089.51651290  .00000715  00000-0  86437-4 0  9992
2 39770  97.8718 191.2463 0010801 105.2275 255.0146 14.86741095208677
UNISAT 6
1 40012U 14033C   18089.52665750  .00000218  00000-0  40010-4 0  9990
2 40012  97.8201 328.6625 0059923  92.5747 268.2323 14.73784158203111
DUCHIFAT 1
1 40021U 14033M   18088.83004866  .00000428  00000-0  49974-4 0  9999
2 40021  97.9173   7.4058 0014524  80.7436 279.5423 14.90238702205132
QB50P1
1 40025U 14033R   18088.70027005 +.00000327 +00000-0 +41069-4 0  9994
2 40025 097.9077 004.2546 0013990 086.6909 273.5908 14.88665066204452
CHUBUSAT 1
1 40300U 14070C   18089.23256354  .00000844  00000-0  40437-4 0  9993
2 40300  97.3685 168.6043 0020360 174.3155 250.4510 15.21453886188278
NUDT-PHONESAT
1 40900U 15049B   18088.97289472  .00002403  00000-0  11142-3 0  9996
2 40900  97.4428  98.1508 0012101 311.9051  48.1152 15.20980692139876
ZDPS 2A
1 40901U 15049C   18089.45256797  .00000911  00000-0  49526-4 0  9995
2 40901  97.4603  97.0325 0012534 316.9072  43.1179 15.16943114139726
ZDPS 2B
1 40902U 15049D   18089.01986129  .00000921  00000-0  50291-4 0  9999
2 40902  97.4497  94.7603 0012587 315.3792  44.6427 15.16743218139647
XW-2A
1 40903U 15049E   18089.50699401  .00001871  00000-0  48663-4 0  9993
2 40903  97.3935 123.5553 0013060 319.7503  40.2775 15.40182984141694
KAITUO 1A
1 40904U 15049F   18089.49076640  .00000908  00000-0  52182-4 0  9997
2 40904  97.4595  94.5486 0013699 317.0487 196.0289 15.14939162139584
OBJECT G
1 40905U 15049G   18089.49669871  .00000410  00000-0  26218-4 0  9991
2 40905  97.4588  92.7607 0014467 306.9359  53.0547 15.13901496139511
XW-2C
1 40906U 15049H   18089.52974099  .00000645  00000-0  37926-4 0  9995
2 40906  97.4605  94.4681 0013697 306.6874  53.3099 15.15082050139586
XW-2D
1 40907U 15049J   18089.55586605  .00000693  00000-0  40330-4 0  9997
2 40907  97.4578  94.2004 0013019 304.4707  55.5295 15.15225089139596
LILACSAT 2
1 40908U 15049K   18089.13809817  .00000411  00000-0  26610-4 0  9998
2 40908  97.4688  93.2498 0014723 306.5668  53.4207 15.13446093139416
XW-2F
1 40910U 15049M   18088.97105360  .00001185  00000-0  64417-4 0  9990
2 40910  97.4583  94.7988 0013688 302.1716  57.8189 15.16363007139444
XW-2B
1 40911U 15049N   18088.91012573  .00000784  00000-0  45268-4 0  9995
2 40911  97.4614  94.0740 0012975 307.4893  52.5159 15.15171481139396
